Location: Andrest
(43.3200°N, 0.0641°E)
Time: 21:50:25
(UTC+00:00)

COSMO-SKYMED 1 - Pass Details

Date: 01 December 2020
Orbit: 621 x 623 km, 97.9° (Epoch: 21 January)

Event Time Altitude Azimuth Distance (km) Brightness Sun altitude
Exits shadow 19:00:16 14° 345° (NNW) 1,739 4.9 -27.6°
Maximum altitude 19:03:13 28° 292° (WNW) 1,166 4.4 -28.1°
Drops below altitude 10° 19:06:55 10° 233° (SW) 1,990 5.8 -28.8°
Sets 19:09:19 0° 222° (SW) 2,891 6.6 -29.2°
